Location: UBC Liquid-Mirror Observatory
(49.2876°N, 122.5728°W)
Time: 15:52:54
(UTC-08:00)

KITSAT 1 - Visible Passes

Search period start: 23 February 2018 00:00
Search period end: 05 March 2018 00:00
Orbit: 1303 x 1327 km, 66.1° (Epoch: 23 February)

Date Brightness Start Highest point End Pass type
(mag) Time Alt. Az. Time Alt. Az. Time Alt. Az.
23 Feb 12.1 01:09:29 19° ENE 01:09:29 19° ENE 01:11:52 10° NE visible
23 Feb 10.6 03:01:27 59° NNE 03:01:27 59° NNE 03:07:57 10° NE visible
23 Feb 11.2 04:53:25 25° WNW 04:56:29 32° NNW 05:03:39 10° NE visible
24 Feb 11.9 01:25:03 25° ENE 01:25:03 25° ENE 01:28:18 10° NE visible
24 Feb 10.5 03:17:01 56° NNW 03:17:01 56° NNW 03:24:04 10° NE visible
24 Feb 11.4 05:08:59 19° WNW 05:13:11 28° NNW 05:19:59 10° NE visible
25 Feb 11.6 01:40:35 32° NE 01:40:35 32° NE 01:44:34 10° NE visible
25 Feb 10.7 03:32:33 47° NNW 03:32:33 47° NNW 03:40:10 10° NE visible
25 Feb 11.6 05:24:31 13° WNW 05:29:56 25° N 05:36:29 10° NE visible
26 Feb 11.3 01:56:06 39° NE 01:56:06 39° NE 02:00:45 10° NE visible
26 Feb 10.9 03:48:04 38° NW 03:48:47 38° NNW 03:56:19 10° NE visible
26 Feb 11.7 05:40:21 10° NW 05:46:45 24° N 05:53:09 10° NE visible
27 Feb 12.4 00:19:38 14° NE 00:19:38 14° NE 00:20:44 10° NE visible
27 Feb 11.0 02:11:35 45° NNE 02:11:35 45° NNE 02:16:52 10° NE visible
27 Feb 11.2 04:03:33 29° NW 04:05:22 32° NNW 04:12:33 10° NE visible
27 Feb 11.7 05:57:10 10° NW 06:03:34 24° N 06:09:59 10° ENE visible
28 Feb 12.1 00:35:06 19° NE 00:35:06 19° NE 00:37:12 10° NE visible
28 Feb 10.9 02:27:03 47° N 02:27:03 47° N 02:32:58 10° NE visible
28 Feb 11.4 04:19:01 23° NW 04:22:02 28° NNW 04:28:54 10° NE visible
28 Feb 11.7 06:13:48 10° NW 06:20:22 26° NNE 06:26:56 10° ENE visible
01 Mar 11.9 00:50:33 24° NE 00:50:33 24° NE 00:53:29 10° NE visible
01 Mar 10.9 02:42:30 45° NNW 02:42:30 45° NNW 02:49:05 10° NE visible
01 Mar 11.6 04:34:27 17° NW 04:38:48 26° N 04:45:23 10° NE visible
02 Mar 11.6 01:05:58 30° NE 01:05:58 30° NE 01:09:40 10° NE visible
02 Mar 11.0 02:57:55 39° NNW 02:57:55 39° NNW 03:05:15 10° NE visible
02 Mar 11.7 04:49:53 12° NW 04:55:36 24° N 05:02:01 10° NE visible
02 Mar 12.5 23:29:25 11° NE 23:29:25 11° NE 23:29:37 10° NE visible
03 Mar 11.4 01:21:22 36° NNE 01:21:22 36° NNE 01:25:48 10° NE visible
03 Mar 11.2 03:13:19 32° NW 03:14:15 33° NNW 03:21:28 10° NE visible
03 Mar 11.8 05:06:01 10° NW 05:12:26 24° N 05:18:50 10° NE visible
03 Mar 12.2 23:44:48 15° NE 23:44:48 15° NE 23:46:06 10° NE visible
04 Mar 11.2 01:36:44 41° NNE 01:36:44 41° NNE 01:41:54 10° NE visible
04 Mar 11.5 03:28:42 25° NW 03:30:55 28° NNW 03:37:47 10° NE visible
04 Mar 11.8 05:22:41 10° NW 05:29:15 25° N 05:35:47 10° ENE visible
